Time,TemperatureF,DewpointF,PressureIn,WindDirection,WindDirectionDegrees,WindSpeedMPH,WindSpeedGustMPH,Humidity,HourlyPrecipIn,Conditions,Clouds,dailyrainin,SoftwareType,DateUTC
2013-09-16 00:01:00,42.4,38.5,30.23,NW,315,0.0,0.0,86,0.00,,,0.00,WUHU21623XXSP,2013-09-16 05:01:00,
2013-09-16 00:06:00,42.4,38.2,30.24,NW,315,0.0,0.0,85,0.00,,,0.00,WUHU21623XXSP,2013-09-16 05:06:00,
2013-09-16 00:11:00,42.3,38.0,30.23,NW,315,0.0,0.0,85,0.00,,,0.00,WUHU21623XXSP,2013-09-16 05:11:00,
2013-09-16 00:16:00,42.1,37.9,30.23,NW,315,0.0,0.0,85,0.00,,,0.00,WUHU21623XXSP,2013-09-16 05:16:00,
2013-09-16 00:21:00,42.1,37.9,30.24,NW,315,0.0,0.0,85,0.00,,,0.00,WUHU21623XXSP,2013-09-16 05:21:00,
2013-09-16 00:26:00,42.1,37.6,30.24,North,0,0.0,0.0,84,0.00,,,0.00,WUHU21623XXSP,2013-09-16 05:26:00,
2013-09-16 00:31:00,42.1,37.5,30.24,NW,315,0.0,0.0,84,0.00,,,0.00,WUHU21623XXSP,2013-09-16 05:31:00,
2013-09-16 00:36:00,42.1,37.5,30.24,NW,315,0.0,0.0,84,0.00,,,0.00,WUHU21623XXSP,2013-09-16 05:36:00,
2013-09-16 00:41:00,41.9,37.7,30.24,NW,315,0.0,0.0,85,0.00,,,0.00,WUHU21623XXSP,2013-09-16 05:41:00,
2013-09-16 00:46:00,41.9,37.7,30.24,North,0,0.0,0.0,85,0.00,,,0.00,WUHU21623XXSP,2013-09-16 05:46:00,
2013-09-16 00:51:00,41.7,37.5,30.24,NW,315,0.0,0.0,85,0.00,,,0.00,WUHU21623XXSP,2013-09-16 05:51:00,
2013-09-16 00:56:00,41.7,37.5,30.24,NW,315,0.0,0.0,85,0.00,,,0.00,WUHU21623XXSP,2013-09-16 05:56:00,
2013-09-16 01:01:00,41.7,37.8,30.24,NW,315,0.0,0.0,86,0.00,,,0.00,WUHU21623XXSP,2013-09-16 06:01:00,
2013-09-16 01:06:00,41.7,37.8,30.24,NW,315,0.0,0.0,86,0.00,,,0.00,WUHU21623XXSP,2013-09-16 06:06:00,
2013-09-16 01:11:00,41.9,38.0,30.24,NW,315,0.0,0.0,86,0.00,,,0.00,WUHU21623XXSP,2013-09-16 06:11:00,
2013-09-16 01:16:00,41.5,37.6,30.24,WNW,292,0.0,0.0,86,0.00,,,0.00,WUHU21623XXSP,2013-09-16 06:16:00,
2013-09-16 01:21:00,41.5,37.6,30.24,WNW,292,0.0,0.0,86,0.00,,,0.00,WUHU21623XXSP,2013-09-16 06:21:00,
2013-09-16 01:26:00,41.0,37.1,30.24,NW,315,0.0,0.0,86,0.00,,,0.00,WUHU21623XXSP,2013-09-16 06:26:00,
2013-09-16 01:31:00,40.6,36.7,30.24,NW,315,0.0,0.0,86,0.00,,,0.00,WUHU21623XXSP,2013-09-16 06:31:00,
2013-09-16 01:36:00,40.3,36.4,30.25,North,0,0.0,0.0,86,0.00,,,0.00,WUHU21623XXSP,2013-09-16 06:36:00,
2013-09-16 01:41:00,40.3,36.4,30.25,NW,315,0.0,0.0,86,0.00,,,0.00,WUHU21623XXSP,2013-09-16 06:41:00,
2013-09-16 01:46:00,40.3,36.4,30.25,NW,315,0.0,0.0,86,0.00,,,0.00,WUHU21623XXSP,2013-09-16 06:46:00,
2013-09-16 01:51:00,40.6,36.7,30.25,NW,315,0.0,0.0,86,0.00,,,0.00,WUHU21623XXSP,2013-09-16 06:51:00,
2013-09-16 01:56:00,40.3,36.4,30.25,NW,315,0.0,0.0,86,0.00,,,0.00,WUHU21623XXSP,2013-09-16 06:56:00,
2013-09-16 02:01:00,39.9,36.0,30.26,NW,315,0.0,0.0,86,0.00,,,0.00,WUHU21623XXSP,2013-09-16 07:01:00,
2013-09-16 02:06:00,39.7,35.9,30.26,NW,315,0.0,0.0,86,0.00,,,0.00,WUHU21623XXSP,2013-09-16 07:06:00,
2013-09-16 02:11:00,39.6,36.0,30.26,NW,315,0.0,0.0,87,0.00,,,0.00,WUHU21623XXSP,2013-09-16 07:11:00,
2013-09-16 02:16:00,39.4,35.8,30.26,NW,315,0.0,0.0,87,0.00,,,0.00,WUHU21623XXSP,2013-09-16 07:16:00,
2013-09-16 02:21:00,39.4,35.8,30.26,NW,315,0.0,0.0,87,0.00,,,0.00,WUHU21623XXSP,2013-09-16 07:21:00,
2013-09-16 02:26:00,39.0,35.5,30.26,NW,315,0.0,0.0,87,0.00,,,0.00,WUHU21623XXSP,2013-09-16 07:26:00,
2013-09-16 02:31:00,39.4,35.8,30.26,NW,315,0.0,0.0,87,0.00,,,0.00,WUHU21623XXSP,2013-09-16 07:31:00,
2013-09-16 02:36:00,39.6,36.3,30.26,NW,315,0.0,0.0,88,0.00,,,0.00,WUHU21623XXSP,2013-09-16 07:36:00,
2013-09-16 02:41:00,39.7,36.2,30.26,NW,315,0.0,0.0,87,0.00,,,0.00,WUHU21623XXSP,2013-09-16 07:41:00,
2013-09-16 02:46:00,39.4,35.8,30.27,NW,315,0.0,0.0,87,0.00,,,0.00,WUHU21623XXSP,2013-09-16 07:46:00,
2013-09-16 02:51:00,39.0,35.5,30.26,NW,315,0.0,0.0,87,0.00,,,0.00,WUHU21623XXSP,2013-09-16 07:51:00,
2013-09-16 02:56:00,39.0,35.5,30.26,NW,315,0.0,0.0,87,0.00,,,0.00,WUHU21623XXSP,2013-09-16 07:56:00,
2013-09-16 03:01:00,39.0,35.5,30.27,NW,315,0.0,0.0,87,0.00,,,0.00,WUHU21623XXSP,2013-09-16 08:01:00,
2013-09-16 03:06:00,39.0,35.5,30.27,WNW,292,0.0,0.0,87,0.00,,,0.00,WUHU21623XXSP,2013-09-16 08:06:00,
2013-09-16 03:11:00,39.4,35.8,30.27,WNW,292,0.0,0.0,87,0.00,,,0.00,WUHU21623XXSP,2013-09-16 08:11:00,
2013-09-16 03:16:00,39.0,35.5,30.27,WNW,292,0.0,0.0,87,0.00,,,0.00,WUHU21623XXSP,2013-09-16 08:16:00,
2013-09-16 03:21:00,39.0,35.5,30.27,WNW,292,0.0,0.0,87,0.00,,,0.00,WUHU21623XXSP,2013-09-16 08:21:00,
2013-09-16 03:26:00,39.0,35.5,30.27,WNW,292,0.0,0.0,87,0.00,,,0.00,WUHU21623XXSP,2013-09-16 08:26:00,
2013-09-16 03:31:00,38.8,35.3,30.27,WNW,292,0.0,0.0,87,0.00,,,0.00,WUHU21623XXSP,2013-09-16 08:31:00,
2013-09-16 03:36:00,38.7,35.1,30.27,WNW,292,0.0,0.0,87,0.00,,,0.00,WUHU21623XXSP,2013-09-16 08:36:00,
2013-09-16 03:41:00,39.0,35.5,30.27,WNW,292,0.0,0.0,87,0.00,,,0.00,WUHU21623XXSP,2013-09-16 08:41:00,
2013-09-16 03:46:00,38.8,35.3,30.27,WNW,292,0.0,0.0,87,0.00,,,0.00,WUHU21623XXSP,2013-09-16 08:46:00,
2013-09-16 03:51:00,38.8,35.3,30.27,WNW,292,0.0,0.0,87,0.00,,,0.00,WUHU21623XXSP,2013-09-16 08:51:00,
2013-09-16 03:56:00,38.7,35.1,30.27,WNW,292,0.0,0.0,87,0.00,,,0.00,WUHU21623XXSP,2013-09-16 08:56:00,
2013-09-16 04:01:00,38.8,35.3,30.27,WNW,292,0.0,0.0,87,0.00,,,0.00,WUHU21623XXSP,2013-09-16 09:01:00,
2013-09-16 04:06:00,38.7,35.1,30.27,WNW,292,0.0,0.0,87,0.00,,,0.00,WUHU21623XXSP,2013-09-16 09:06:00,
2013-09-16 04:11:00,38.5,34.9,30.27,WNW,292,0.0,0.0,87,0.00,,,0.00,WUHU21623XXSP,2013-09-16 09:11:00,
2013-09-16 04:16:00,38.3,34.7,30.27,WNW,292,0.0,0.0,87,0.00,,,0.00,WUHU21623XXSP,2013-09-16 09:16:00,
2013-09-16 04:21:00,38.3,34.7,30.27,WNW,292,0.0,0.0,87,0.00,,,0.00,WUHU21623XXSP,2013-09-16 09:21:00,
2013-09-16 04:26:00,38.1,34.8,30.27,WNW,292,0.0,0.0,88,0.00,,,0.00,WUHU21623XXSP,2013-09-16 09:26:00,
2013-09-16 04:31:00,37.9,34.7,30.27,WNW,292,0.0,0.0,88,0.00,,,0.00,WUHU21623XXSP,2013-09-16 09:31:00,
2013-09-16 04:36:00,37.6,34.3,30.27,WNW,292,0.0,0.0,88,0.00,,,0.00,WUHU21623XXSP,2013-09-16 09:36:00,
2013-09-16 04:41:00,37.8,34.5,30.27,WNW,292,0.0,0.0,88,0.00,,,0.00,WUHU21623XXSP,2013-09-16 09:41:00,
2013-09-16 04:46:00,37.8,34.5,30.27,WNW,292,0.0,0.0,88,0.00,,,0.00,WUHU21623XXSP,2013-09-16 09:46:00,
2013-09-16 04:51:00,37.6,34.3,30.27,WNW,292,0.0,0.0,88,0.00,,,0.00,WUHU21623XXSP,2013-09-16 09:51:00,
2013-09-16 04:56:00,37.6,34.3,30.27,WNW,292,0.0,0.0,88,0.00,,,0.00,WUHU21623XXSP,2013-09-16 09:56:00,
2013-09-16 05:01:00,37.4,34.1,30.27,WNW,292,0.0,0.0,88,0.00,,,0.00,WUHU21623XXSP,2013-09-16 10:01:00,
2013-09-16 05:06:00,37.2,33.9,30.27,WNW,292,0.0,0.0,88,0.00,,,0.00,WUHU21623XXSP,2013-09-16 10:06:00,
2013-09-16 05:11:00,37.2,33.9,30.27,WNW,292,0.0,0.0,88,0.00,,,0.00,WUHU21623XXSP,2013-09-16 10:11:00,
2013-09-16 05:16:00,37.0,33.8,30.27,WNW,292,0.0,0.0,88,0.00,,,0.00,WUHU21623XXSP,2013-09-16 10:16:00,
2013-09-16 05:21:00,36.9,33.6,30.27,WNW,292,0.0,0.0,88,0.00,,,0.00,WUHU21623XXSP,2013-09-16 10:21:00,
2013-09-16 05:26:00,36.9,33.9,30.27,WNW,292,0.0,0.0,89,0.00,,,0.00,WUHU21623XXSP,2013-09-16 10:26:00,
2013-09-16 05:31:00,36.7,33.7,30.28,WNW,292,0.0,0.0,89,0.00,,,0.00,WUHU21623XXSP,2013-09-16 10:31:00,
2013-09-16 05:36:00,36.9,33.9,30.27,WNW,292,0.0,0.0,89,0.00,,,0.00,WUHU21623XXSP,2013-09-16 10:36:00,
2013-09-16 05:41:00,36.5,33.2,30.28,WNW,292,0.0,0.0,88,0.00,,,0.00,WUHU21623XXSP,2013-09-16 10:41:00,
2013-09-16 05:46:00,36.7,33.7,30.28,WNW,292,0.0,0.0,89,0.00,,,0.00,WUHU21623XXSP,2013-09-16 10:46:00,
2013-09-16 05:51:00,37.0,34.1,30.28,WNW,292,0.0,0.0,89,0.00,,,0.00,WUHU21623XXSP,2013-09-16 10:51:00,
2013-09-16 05:56:00,37.2,34.2,30.29,WNW,292,0.0,0.0,89,0.00,,,0.00,WUHU21623XXSP,2013-09-16 10:56:00,
2013-09-16 06:01:00,37.2,34.2,30.29,WNW,292,0.0,0.0,89,0.00,,,0.00,WUHU21623XXSP,2013-09-16 11:01:00,
2013-09-16 06:06:00,37.2,34.2,30.29,WNW,292,0.0,0.0,89,0.00,,,0.00,WUHU21623XXSP,2013-09-16 11:06:00,
2013-09-16 06:11:00,37.2,34.2,30.28,WNW,292,0.0,0.0,89,0.00,,,0.00,WUHU21623XXSP,2013-09-16 11:11:00,
2013-09-16 06:16:00,37.2,34.2,30.28,WNW,292,0.0,0.0,89,0.00,,,0.00,WUHU21623XXSP,2013-09-16 11:16:00,
2013-09-16 06:21:00,36.7,33.7,30.29,WNW,292,0.0,0.0,89,0.00,,,0.00,WUHU21623XXSP,2013-09-16 11:21:00,
2013-09-16 06:26:00,36.3,33.0,30.29,WNW,292,0.0,0.0,88,0.00,,,0.00,WUHU21623XXSP,2013-09-16 11:26:00,
2013-09-16 06:31:00,36.3,33.0,30.29,WNW,292,0.0,0.0,88,0.00,,,0.00,WUHU21623XXSP,2013-09-16 11:31:00,
2013-09-16 06:36:00,36.1,32.9,30.29,WNW,292,0.0,0.0,88,0.00,,,0.00,WUHU21623XXSP,2013-09-16 11:36:00,
2013-09-16 06:41:00,36.1,32.9,30.29,WNW,292,0.0,0.0,88,0.00,,,0.00,WUHU21623XXSP,2013-09-16 11:41:00,
2013-09-16 06:46:00,36.1,32.9,30.29,WNW,292,0.0,0.0,88,0.00,,,0.00,WUHU21623XXSP,2013-09-16 11:46:00,
2013-09-16 06:51:00,36.1,32.9,30.29,WNW,292,0.0,0.0,88,0.00,,,0.00,WUHU21623XXSP,2013-09-16 11:51:00,
2013-09-16 06:56:00,36.3,33.0,30.29,WNW,292,0.0,0.0,88,0.00,,,0.00,WUHU21623XXSP,2013-09-16 11:56:00,
2013-09-16 07:01:00,36.3,33.0,30.29,WNW,292,0.0,0.0,88,0.00,,,0.00,WUHU21623XXSP,2013-09-16 12:01:00,
2013-09-16 07:06:00,35.8,32.5,30.29,WNW,292,0.0,0.0,88,0.00,,,0.00,WUHU21623XXSP,2013-09-16 12:06:00,
2013-09-16 07:11:00,35.8,32.5,30.30,WNW,292,0.0,0.0,88,0.00,,,0.00,WUHU21623XXSP,2013-09-16 12:11:00,
2013-09-16 07:16:00,36.1,32.9,30.30,WNW,292,0.0,0.0,88,0.00,,,0.00,WUHU21623XXSP,2013-09-16 12:16:00,
2013-09-16 07:21:00,36.1,32.9,30.30,WNW,292,0.0,0.0,88,0.00,,,0.00,WUHU21623XXSP,2013-09-16 12:21:00,
2013-09-16 07:26:00,36.1,32.9,30.30,WNW,292,0.0,0.0,88,0.00,,,0.00,WUHU21623XXSP,2013-09-16 12:26:00,
2013-09-16 07:31:00,36.3,33.3,30.30,WNW,292,0.0,0.0,89,0.00,,,0.00,WUHU21623XXSP,2013-09-16 12:31:00,
2013-09-16 07:36:00,36.3,33.0,30.30,WNW,292,0.0,0.0,88,0.00,,,0.00,WUHU21623XXSP,2013-09-16 12:36:00,
2013-09-16 07:41:00,36.3,33.3,30.30,WNW,292,0.0,0.0,89,0.00,,,0.00,WUHU21623XXSP,2013-09-16 12:41:00,
2013-09-16 07:46:00,36.3,33.3,30.29,WNW,292,0.0,0.0,89,0.00,,,0.00,WUHU21623XXSP,2013-09-16 12:46:00,
2013-09-16 07:51:00,36.7,33.7,30.29,WNW,292,0.0,0.0,89,0.00,,,0.00,WUHU21623XXSP,2013-09-16 12:51:00,
2013-09-16 07:56:00,37.2,34.2,30.30,NW,315,0.0,0.0,89,0.00,,,0.00,WUHU21623XXSP,2013-09-16 12:56:00,
2013-09-16 08:01:00,37.9,35.0,30.30,NNE,22,0.0,0.0,89,0.00,,,0.00,WUHU21623XXSP,2013-09-16 13:01:00,
2013-09-16 08:06:00,38.1,35.1,30.30,NNE,22,0.0,0.0,89,0.00,,,0.00,WUHU21623XXSP,2013-09-16 13:06:00,
2013-09-16 08:11:00,38.5,35.5,30.30,NNE,22,0.0,0.0,89,0.00,,,0.00,WUHU21623XXSP,2013-09-16 13:11:00,
2013-09-16 08:16:00,38.8,35.9,30.30,NNE,22,0.0,0.0,89,0.00,,,0.00,WUHU21623XXSP,2013-09-16 13:16:00,
2013-09-16 08:21:00,39.4,36.4,30.30,NNE,22,0.0,0.0,89,0.00,,,0.00,WUHU21623XXSP,2013-09-16 13:21:00,
2013-09-16 08:26:00,39.9,36.9,30.30,NNE,22,0.0,0.0,89,0.00,,,0.00,WUHU21623XXSP,2013-09-16 13:26:00,
2013-09-16 08:31:00,40.5,37.5,30.30,ESE,112,0.0,0.0,89,0.00,,,0.00,WUHU21623XXSP,2013-09-16 13:31:00,
2013-09-16 08:36:00,40.8,37.8,30.30,SSE,157,0.0,0.0,89,0.00,,,0.00,WUHU21623XXSP,2013-09-16 13:36:00,
2013-09-16 08:41:00,41.4,38.4,30.30,SSE,157,0.0,0.0,89,0.00,,,0.00,WUHU21623XXSP,2013-09-16 13:41:00,
2013-09-16 08:46:00,41.7,38.7,30.30,SSE,157,0.0,0.0,89,0.00,,,0.00,WUHU21623XXSP,2013-09-16 13:46:00,
2013-09-16 08:51:00,42.1,39.1,30.30,SSE,157,0.0,0.0,89,0.00,,,0.00,WUHU21623XXSP,2013-09-16 13:51:00,
2013-09-16 08:56:00,43.2,38.9,30.30,SSE,157,0.0,0.0,85,0.00,,,0.00,WUHU21623XXSP,2013-09-16 13:56:00,
2013-09-16 09:01:00,43.9,39.0,30.30,SSE,157,0.0,0.0,83,0.00,,,0.00,WUHU21623XXSP,2013-09-16 14:01:00,
2013-09-16 09:06:00,44.6,39.1,30.30,SSE,157,0.0,0.0,81,0.00,,,0.00,WUHU21623XXSP,2013-09-16 14:06:00,
2013-09-16 09:12:00,45.1,39.7,30.31,SSE,157,0.0,0.0,81,0.00,,,0.00,WUHU21623XXSP,2013-09-16 14:12:00,
2013-09-16 09:17:00,45.7,39.6,30.31,SSE,157,0.0,0.0,79,0.00,,,0.00,WUHU21623XXSP,2013-09-16 14:17:00,
2013-09-16 09:22:00,46.4,39.8,30.31,SSE,157,0.0,0.0,77,0.00,,,0.00,WUHU21623XXSP,2013-09-16 14:22:00,
2013-09-16 09:27:00,47.1,39.2,30.31,SSE,157,0.0,0.0,74,0.00,,,0.00,WUHU21623XXSP,2013-09-16 14:27:00,
2013-09-16 09:32:00,48.0,40.4,30.31,SSE,157,0.0,0.0,75,0.00,,,0.00,WUHU21623XXSP,2013-09-16 14:32:00,
2013-09-16 09:37:00,48.4,40.0,30.31,SSE,157,0.0,0.0,73,0.00,,,0.00,WUHU21623XXSP,2013-09-16 14:37:00,
2013-09-16 09:42:00,49.3,40.9,30.31,SSE,157,0.0,0.0,73,0.00,,,0.00,WUHU21623XXSP,2013-09-16 14:42:00,
2013-09-16 09:47:00,50.2,41.8,30.31,SSE,157,0.0,0.0,73,0.00,,,0.00,WUHU21623XXSP,2013-09-16 14:47:00,
2013-09-16 09:52:00,51.4,40.8,30.31,WSW,247,0.0,0.0,67,0.00,,,0.00,WUHU21623XXSP,2013-09-16 14:52:00,
2013-09-16 09:57:00,52.3,40.1,30.31,SW,225,0.0,0.0,63,0.00,,,0.00,WUHU21623XXSP,2013-09-16 14:57:00,
2013-09-16 10:02:00,52.9,41.4,30.31,SW,225,0.0,0.0,65,0.00,,,0.00,WUHU21623XXSP,2013-09-16 15:02:00,
2013-09-16 10:07:00,52.9,41.0,30.31,SW,225,0.0,0.0,64,0.00,,,0.00,WUHU21623XXSP,2013-09-16 15:07:00,
2013-09-16 10:12:00,54.0,40.4,30.30,WSW,247,0.0,0.0,60,0.00,,,0.00,WUHU21623XXSP,2013-09-16 15:12:00,
2013-09-16 10:17:00,54.7,41.1,30.31,WSW,247,0.0,0.0,60,0.00,,,0.00,WUHU21623XXSP,2013-09-16 15:17:00,
2013-09-16 10:22:00,55.0,40.9,30.31,SW,225,0.0,0.0,59,0.00,,,0.00,WUHU21623XXSP,2013-09-16 15:22:00,
2013-09-16 10:27:00,55.8,42.1,30.31,WSW,247,0.0,0.0,60,0.00,,,0.00,WUHU21623XXSP,2013-09-16 15:27:00,
2013-09-16 10:32:00,56.1,39.6,30.31,West,270,0.0,0.0,54,0.00,,,0.00,WUHU21623XXSP,2013-09-16 15:32:00,
2013-09-16 10:37:00,55.8,40.2,30.30,SSW,202,0.0,0.0,56,0.00,,,0.00,WUHU21623XXSP,2013-09-16 15:37:00,
2013-09-16 10:42:00,56.1,42.4,30.31,SW,225,0.0,0.0,60,0.00,,,0.00,WUHU21623XXSP,2013-09-16 15:42:00,
2013-09-16 10:47:00,55.9,42.7,30.31,WSW,247,0.0,0.0,61,0.00,,,0.00,WUHU21623XXSP,2013-09-16 15:47:00,
2013-09-16 10:52:00,57.6,42.0,30.30,WSW,247,0.0,0.0,56,0.00,,,0.00,WUHU21623XXSP,2013-09-16 15:52:00,
2013-09-16 10:57:00,57.0,40.5,30.30,WNW,292,0.0,0.0,54,0.00,,,0.00,WUHU21623XXSP,2013-09-16 15:57:00,
2013-09-16 11:02:00,58.1,42.9,30.30,WSW,247,0.0,0.0,57,0.00,,,0.00,WUHU21623XXSP,2013-09-16 16:02:00,
2013-09-16 11:07:00,57.6,42.0,30.30,SSW,202,0.0,0.0,56,0.00,,,0.00,WUHU21623XXSP,2013-09-16 16:07:00,
2013-09-16 11:12:00,58.5,39.4,30.30,SW,225,0.0,0.0,49,0.00,,,0.00,WUHU21623XXSP,2013-09-16 16:12:00,
2013-09-16 11:17:00,58.6,42.0,30.30,NW,315,0.0,0.0,54,0.00,,,0.00,WUHU21623XXSP,2013-09-16 16:17:00,
2013-09-16 11:22:00,58.8,42.2,30.30,South,180,0.0,0.0,54,0.00,,,0.00,WUHU21623XXSP,2013-09-16 16:22:00,
2013-09-16 11:27:00,58.6,39.6,30.29,SSW,202,0.0,0.0,49,0.00,,,0.00,WUHU21623XXSP,2013-09-16 16:27:00,
2013-09-16 11:32:00,58.8,40.8,30.30,SSW,202,0.0,0.0,51,0.00,,,0.00,WUHU21623XXSP,2013-09-16 16:32:00,
2013-09-16 11:37:00,58.3,39.2,30.30,SW,225,0.0,0.0,49,0.00,,,0.00,WUHU21623XXSP,2013-09-16 16:37:00,
2013-09-16 11:42:00,57.6,39.2,30.29,SSW,202,0.0,0.0,50,0.00,,,0.00,WUHU21623XXSP,2013-09-16 16:42:00,
2013-09-16 11:46:00,57.9,40.0,30.29,SE,135,0.0,0.0,51,0.00,,,0.00,WUHU21623XXSP,2013-09-16 16:46:00,
2013-09-16 11:52:00,58.8,40.8,30.29,WSW,247,0.0,0.0,51,0.00,,,0.00,WUHU21623XXSP,2013-09-16 16:52:00,
2013-09-16 11:57:00,59.7,43.0,30.29,West,270,0.0,0.0,54,0.00,,,0.00,WUHU21623XXSP,2013-09-16 16:57:00,
2013-09-16 12:02:00,59.9,41.7,30.29,WSW,247,0.0,0.0,51,0.00,,,0.00,WUHU21623XXSP,2013-09-16 17:02:00,
2013-09-16 12:07:00,59.5,40.9,30.29,South,180,0.0,0.0,50,0.00,,,0.00,WUHU21623XXSP,2013-09-16 17:07:00,
2013-09-16 12:12:00,59.2,39.5,30.29,WSW,247,0.0,0.0,48,0.00,,,0.00,WUHU21623XXSP,2013-09-16 17:12:00,
2013-09-16 12:17:00,61.0,41.1,30.28,NW,315,0.0,0.0,48,0.00,,,0.00,WUHU21623XXSP,2013-09-16 17:17:00,
2013-09-16 12:22:00,61.5,42.2,30.29,WSW,247,0.0,0.0,49,0.00,,,0.00,WUHU21623XXSP,2013-09-16 17:22:00,
2013-09-16 12:27:00,60.4,39.5,30.28,SE,135,0.0,0.0,46,0.00,,,0.00,WUHU21623XXSP,2013-09-16 17:27:00,
2013-09-16 12:32:00,60.6,40.8,30.28,NE,45,0.0,0.0,48,0.00,,,0.00,WUHU21623XXSP,2013-09-16 17:32:00,
2013-09-16 12:37:00,60.1,40.3,30.28,SW,225,0.0,0.0,48,0.00,,,0.00,WUHU21623XXSP,2013-09-16 17:37:00,
2013-09-16 12:42:00,61.0,42.2,30.28,West,270,0.0,0.0,50,0.00,,,0.00,WUHU21623XXSP,2013-09-16 17:42:00,
2013-09-16 12:47:00,62.2,41.6,30.28,West,270,0.0,0.0,47,0.00,,,0.00,WUHU21623XXSP,2013-09-16 17:47:00,
2013-09-16 12:52:00,61.0,41.1,30.28,SSW,202,0.0,0.0,48,0.00,,,0.00,WUHU21623XXSP,2013-09-16 17:52:00,
2013-09-16 12:57:00,59.5,39.2,30.28,East,90,0.0,0.0,47,0.00,,,0.00,WUHU21623XXSP,2013-09-16 17:57:00,
2013-09-16 13:02:00,59.7,42.0,30.27,SE,135,0.0,0.0,52,0.00,,,0.00,WUHU21623XXSP,2013-09-16 18:02:00,
2013-09-16 13:07:00,60.4,38.9,30.27,SSW,202,0.0,0.0,45,0.00,,,0.00,WUHU21623XXSP,2013-09-16 18:07:00,
2013-09-16 13:12:00,61.0,41.1,30.27,WNW,292,0.0,0.0,48,0.00,,,0.00,WUHU21623XXSP,2013-09-16 18:12:00,
2013-09-16 13:17:00,61.0,39.9,30.27,South,180,0.0,0.0,46,0.00,,,0.00,WUHU21623XXSP,2013-09-16 18:17:00,
2013-09-16 13:22:00,61.5,40.4,30.27,West,270,0.0,0.0,46,0.00,,,0.00,WUHU21623XXSP,2013-09-16 18:22:00,
2013-09-16 13:27:00,61.3,39.1,30.27,SW,225,0.0,0.0,44,0.00,,,0.00,WUHU21623XXSP,2013-09-16 18:27:00,
2013-09-16 13:32:00,60.6,40.8,30.27,West,270,0.0,0.0,48,0.00,,,0.00,WUHU21623XXSP,2013-09-16 18:32:00,
2013-09-16 13:37:00,62.4,40.7,30.26,West,270,0.0,0.0,45,0.00,,,0.00,WUHU21623XXSP,2013-09-16 18:37:00,
2013-09-16 13:42:00,61.9,40.7,30.26,SW,225,0.0,0.0,46,0.00,,,0.00,WUHU21623XXSP,2013-09-16 18:42:00,
2013-09-16 13:47:00,62.8,41.6,30.26,WSW,247,0.0,0.0,46,0.00,,,0.00,WUHU21623XXSP,2013-09-16 18:47:00,
2013-09-16 13:52:00,62.8,39.3,30.26,SW,225,0.0,0.0,42,0.00,,,0.00,WUHU21623XXSP,2013-09-16 18:52:00,
2013-09-16 13:57:00,62.4,39.5,30.25,SSE,157,0.0,0.0,43,0.00,,,0.00,WUHU21623XXSP,2013-09-16 18:57:00,
2013-09-16 14:02:00,61.7,41.2,30.25,WNW,292,0.0,0.0,47,0.00,,,0.00,WUHU21623XXSP,2013-09-16 19:02:00,
2013-09-16 14:07:00,62.2,40.5,30.25,SW,225,0.0,0.0,45,0.00,,,0.00,WUHU21623XXSP,2013-09-16 19:07:00,
2013-09-16 14:12:00,63.1,42.5,30.24,West,270,0.0,0.0,47,0.00,,,0.00,WUHU21623XXSP,2013-09-16 19:12:00,
2013-09-16 14:17:00,62.8,39.8,30.24,WNW,292,0.0,0.0,43,0.00,,,0.00,WUHU21623XXSP,2013-09-16 19:17:00,
2013-09-16 14:22:00,62.2,41.1,30.24,WNW,292,0.0,0.0,46,0.00,,,0.00,WUHU21623XXSP,2013-09-16 19:22:00,
2013-09-16 14:27:00,63.1,43.0,30.24,NW,315,0.0,0.0,48,0.00,,,0.00,WUHU21623XXSP,2013-09-16 19:27:00,
2013-09-16 14:32:00,61.9,39.0,30.24,SE,135,0.0,0.0,43,0.00,,,0.00,WUHU21623XXSP,2013-09-16 19:32:00,
2013-09-16 14:37:00,61.9,40.7,30.24,WSW,247,0.0,0.0,46,0.00,,,0.00,WUHU21623XXSP,2013-09-16 19:37:00,
2013-09-16 14:42:00,63.3,41.5,30.23,NW,315,0.0,0.0,45,0.00,,,0.00,WUHU21623XXSP,2013-09-16 19:42:00,
2013-09-16 14:47:00,63.3,39.7,30.23,SSE,157,0.0,0.0,42,0.00,,,0.00,WUHU21623XXSP,2013-09-16 19:47:00,
2013-09-16 14:52:00,62.4,40.1,30.23,SSW,202,0.0,0.0,44,0.00,,,0.00,WUHU21623XXSP,2013-09-16 19:52:00,
2013-09-16 14:57:00,63.1,40.7,30.23,SSW,202,0.0,0.0,44,0.00,,,0.00,WUHU21623XXSP,2013-09-16 19:57:00,
2013-09-16 15:02:00,64.0,41.0,30.23,SSW,202,0.0,0.0,43,0.00,,,0.00,WUHU21623XXSP,2013-09-16 20:02:00,
2013-09-16 15:07:00,63.3,40.9,30.23,SW,225,0.0,0.0,44,0.00,,,0.00,WUHU21623XXSP,2013-09-16 20:07:00,
2013-09-16 15:12:00,63.7,40.6,30.23,SSW,202,0.0,0.0,43,0.00,,,0.00,WUHU21623XXSP,2013-09-16 20:12:00,
2013-09-16 15:17:00,64.2,43.4,30.22,WNW,292,0.0,0.0,47,0.00,,,0.00,WUHU21623XXSP,2013-09-16 20:17:00,
2013-09-16 15:22:00,63.5,40.5,30.22,South,180,0.0,0.0,43,0.00,,,0.00,WUHU21623XXSP,2013-09-16 20:22:00,
2013-09-16 15:27:00,62.6,40.8,30.22,WSW,247,0.0,0.0,45,0.00,,,0.00,WUHU21623XXSP,2013-09-16 20:27:00,
2013-09-16 15:32:00,63.7,41.2,30.22,WSW,247,0.0,0.0,44,0.00,,,0.00,WUHU21623XXSP,2013-09-16 20:32:00,
2013-09-16 15:37:00,64.2,43.4,30.22,WSW,247,0.0,0.0,47,0.00,,,0.00,WUHU21623XXSP,2013-09-16 20:37:00,
2013-09-16 15:42:00,64.6,43.2,30.22,WSW,247,0.0,0.0,46,0.00,,,0.00,WUHU21623XXSP,2013-09-16 20:42:00,
2013-09-16 15:47:00,64.8,41.6,30.21,WSW,247,0.0,0.0,43,0.00,,,0.00,WUHU21623XXSP,2013-09-16 20:47:00,
2013-09-16 15:52:00,63.9,41.4,30.21,WSW,247,0.0,0.0,44,0.00,,,0.00,WUHU21623XXSP,2013-09-16 20:52:00,
2013-09-16 15:57:00,63.7,42.4,30.21,WSW,247,0.0,0.0,46,0.00,,,0.00,WUHU21623XXSP,2013-09-16 20:57:00,
2013-09-16 16:02:00,63.5,41.6,30.21,WSW,247,0.0,0.0,45,0.00,,,0.00,WUHU21623XXSP,2013-09-16 21:02:00,
2013-09-16 16:07:00,63.7,41.2,30.20,WSW,247,0.0,0.0,44,0.00,,,0.00,WUHU21623XXSP,2013-09-16 21:07:00,
2013-09-16 16:12:00,64.0,44.4,30.21,WSW,247,0.0,0.0,49,0.00,,,0.00,WUHU21623XXSP,2013-09-16 21:12:00,
2013-09-16 16:17:00,64.6,42.6,30.20,WSW,247,0.0,0.0,45,0.00,,,0.00,WUHU21623XXSP,2013-09-16 21:17:00,
2013-09-16 16:22:00,63.9,42.0,30.20,WSW,247,0.0,0.0,45,0.00,,,0.00,WUHU21623XXSP,2013-09-16 21:22:00,
2013-09-16 16:27:00,63.1,41.3,30.20,WSW,247,0.0,0.0,45,0.00,,,0.00,WUHU21623XXSP,2013-09-16 21:27:00,
2013-09-16 16:32:00,63.1,42.5,30.19,WSW,247,0.0,0.0,47,0.00,,,0.00,WUHU21623XXSP,2013-09-16 21:32:00,
2013-09-16 16:37:00,63.1,44.7,30.19,WSW,247,0.0,0.0,51,0.00,,,0.00,WUHU21623XXSP,2013-09-16 21:37:00,
2013-09-16 16:42:00,63.7,43.5,30.19,WSW,247,0.0,0.0,48,0.00,,,0.00,WUHU21623XXSP,2013-09-16 21:42:00,
2013-09-16 16:47:00,63.5,42.8,30.19,WSW,247,0.0,0.0,47,0.00,,,0.00,WUHU21623XXSP,2013-09-16 21:47:00,
2013-09-16 16:52:00,63.3,44.3,30.19,WSW,247,0.0,0.0,50,0.00,,,0.00,WUHU21623XXSP,2013-09-16 21:52:00,
2013-09-16 16:57:00,63.1,44.7,30.19,WSW,247,0.0,0.0,51,0.00,,,0.00,WUHU21623XXSP,2013-09-16 21:57:00,
2013-09-16 17:02:00,63.3,44.8,30.19,WSW,247,0.0,0.0,51,0.00,,,0.00,WUHU21623XXSP,2013-09-16 22:02:00,
2013-09-16 17:07:00,62.8,43.3,30.19,South,180,0.0,0.0,49,0.00,,,0.00,WUHU21623XXSP,2013-09-16 22:07:00,
2013-09-16 17:12:00,62.6,43.7,30.19,WSW,247,0.0,0.0,50,0.00,,,0.00,WUHU21623XXSP,2013-09-16 22:12:00,
2013-09-16 17:17:00,62.8,43.3,30.19,WSW,247,0.0,0.0,49,0.00,,,0.00,WUHU21623XXSP,2013-09-16 22:17:00,
2013-09-16 17:22:00,62.4,42.4,30.19,SW,225,0.0,0.0,48,0.00,,,0.00,WUHU21623XXSP,2013-09-16 22:22:00,
2013-09-16 17:27:00,62.1,42.1,30.19,WSW,247,0.0,0.0,48,0.00,,,0.00,WUHU21623XXSP,2013-09-16 22:27:00,
2013-09-16 17:32:00,61.9,43.5,30.19,WSW,247,0.0,0.0,51,0.00,,,0.00,WUHU21623XXSP,2013-09-16 22:32:00,
2013-09-16 17:37:00,61.7,43.9,30.18,WSW,247,0.0,0.0,52,0.00,,,0.00,WUHU21623XXSP,2013-09-16 22:37:00,
2013-09-16 17:42:00,61.5,43.7,30.18,WSW,247,0.0,0.0,52,0.00,,,0.00,WUHU21623XXSP,2013-09-16 22:42:00,
2013-09-16 17:47:00,61.0,43.2,30.18,WSW,247,0.0,0.0,52,0.00,,,0.00,WUHU21623XXSP,2013-09-16 22:47:00,
2013-09-16 17:52:00,61.0,43.2,30.18,WSW,247,0.0,0.0,52,0.00,,,0.00,WUHU21623XXSP,2013-09-16 22:52:00,
2013-09-16 17:57:00,60.6,43.4,30.18,WSW,247,0.0,0.0,53,0.00,,,0.00,WUHU21623XXSP,2013-09-16 22:57:00,
2013-09-16 18:02:00,60.6,43.4,30.18,WSW,247,0.0,0.0,53,0.00,,,0.00,WUHU21623XXSP,2013-09-16 23:02:00,
2013-09-16 18:07:00,60.6,43.8,30.17,WSW,247,0.0,0.0,54,0.00,,,0.00,WUHU21623XXSP,2013-09-16 23:07:00,
2013-09-16 18:12:00,60.3,44.5,30.17,WSW,247,0.0,0.0,56,0.00,,,0.00,WUHU21623XXSP,2013-09-16 23:12:00,
2013-09-16 18:17:00,59.7,43.5,30.17,WSW,247,0.0,0.0,55,0.00,,,0.00,WUHU21623XXSP,2013-09-16 23:17:00,
2013-09-16 18:22:00,59.5,43.3,30.17,WSW,247,0.0,0.0,55,0.00,,,0.00,WUHU21623XXSP,2013-09-16 23:22:00,
2013-09-16 18:27:00,59.2,43.0,30.17,WSW,247,0.0,0.0,55,0.00,,,0.00,WUHU21623XXSP,2013-09-16 23:27:00,
2013-09-16 18:32:00,58.8,44.0,30.17,WSW,247,0.0,0.0,58,0.00,,,0.00,WUHU21623XXSP,2013-09-16 23:32:00,
2013-09-16 18:37:00,58.3,43.1,30.17,SSW,202,0.0,0.0,57,0.00,,,0.00,WUHU21623XXSP,2013-09-16 23:37:00,
2013-09-16 18:42:00,58.3,43.1,30.17,WSW,247,0.0,0.0,57,0.00,,,0.00,WUHU21623XXSP,2013-09-16 23:42:00,
2013-09-16 18:47:00,57.7,43.5,30.17,South,180,0.0,0.0,59,0.00,,,0.00,WUHU21623XXSP,2013-09-16 23:47:00,
2013-09-16 18:52:00,57.2,43.5,30.17,South,180,0.0,0.0,60,0.00,,,0.00,WUHU21623XXSP,2013-09-16 23:52:00,
2013-09-16 18:57:00,56.5,44.0,30.16,South,180,0.0,0.0,63,0.00,,,0.00,WUHU21623XXSP,2013-09-16 23:57:00,
2013-09-16 19:02:00,55.8,44.5,30.16,South,180,0.0,0.0,66,0.00,,,0.00,WUHU21623XXSP,2013-09-17 00:02:00,
2013-09-16 19:07:00,55.2,44.4,30.16,South,180,0.0,0.0,67,0.00,,,0.00,WUHU21623XXSP,2013-09-17 00:07:00,
2013-09-16 19:12:00,54.7,44.3,30.17,South,180,0.0,0.0,68,0.00,,,0.00,WUHU21623XXSP,2013-09-17 00:12:00,
2013-09-16 19:17:00,53.8,44.2,30.16,South,180,0.0,0.0,70,0.00,,,0.00,WUHU21623XXSP,2013-09-17 00:17:00,
2013-09-16 19:22:00,53.8,44.2,30.16,South,180,0.0,0.0,70,0.00,,,0.00,WUHU21623XXSP,2013-09-17 00:22:00,
2013-09-16 19:27:00,53.4,44.2,30.16,South,180,0.0,0.0,71,0.00,,,0.00,WUHU21623XXSP,2013-09-17 00:27:00,
2013-09-16 19:32:00,53.2,44.1,30.16,South,180,0.0,0.0,71,0.00,,,0.00,WUHU21623XXSP,2013-09-17 00:32:00,
2013-09-16 19:37:00,53.2,44.1,30.15,South,180,0.0,0.0,71,0.00,,,0.00,WUHU21623XXSP,2013-09-17 00:37:00,
2013-09-16 19:42:00,52.9,43.8,30.15,South,180,0.0,0.0,71,0.00,,,0.00,WUHU21623XXSP,2013-09-17 00:42:00,
2013-09-16 19:47:00,52.9,43.8,30.15,South,180,0.0,0.0,71,0.00,,,0.00,WUHU21623XXSP,2013-09-17 00:47:00,
2013-09-16 19:52:00,52.9,43.8,30.15,South,180,0.0,0.0,71,0.00,,,0.00,WUHU21623XXSP,2013-09-17 00:52:00,
2013-09-16 19:57:00,52.3,43.6,30.15,South,180,0.0,0.0,72,0.00,,,0.00,WUHU21623XXSP,2013-09-17 00:57:00,
2013-09-16 20:02:00,52.2,43.8,30.15,South,180,0.0,0.0,73,0.00,,,0.00,WUHU21623XXSP,2013-09-17 01:02:00,
2013-09-16 20:07:00,52.2,43.8,30.15,South,180,0.0,0.0,73,0.00,,,0.00,WUHU21623XXSP,2013-09-17 01:07:00,
2013-09-16 20:12:00,52.0,43.6,30.15,SE,135,0.0,0.0,73,0.00,,,0.00,WUHU21623XXSP,2013-09-17 01:12:00,
2013-09-16 20:17:00,52.2,43.4,30.15,SE,135,0.0,0.0,72,0.00,,,0.00,WUHU21623XXSP,2013-09-17 01:17:00,
2013-09-16 20:22:00,52.0,43.3,30.15,SSE,157,0.0,0.0,72,0.00,,,0.00,WUHU21623XXSP,2013-09-17 01:22:00,
2013-09-16 20:27:00,52.0,43.3,30.15,SSE,157,0.0,0.0,72,0.00,,,0.00,WUHU21623XXSP,2013-09-17 01:27:00,
2013-09-16 20:32:00,51.6,42.9,30.16,ESE,112,0.0,0.0,72,0.00,,,0.00,WUHU21623XXSP,2013-09-17 01:32:00,
2013-09-16 20:37:00,51.3,42.6,30.16,SSE,157,0.0,0.0,72,0.00,,,0.00,WUHU21623XXSP,2013-09-17 01:37:00,
2013-09-16 20:42:00,50.7,42.7,30.16,SE,135,0.0,0.0,74,0.00,,,0.00,WUHU21623XXSP,2013-09-17 01:42:00,
2013-09-16 20:47:00,50.7,43.1,30.15,SSW,202,0.0,0.0,75,0.00,,,0.00,WUHU21623XXSP,2013-09-17 01:47:00,
2013-09-16 20:52:00,50.4,42.7,30.15,SE,135,0.0,0.0,75,0.00,,,0.00,WUHU21623XXSP,2013-09-17 01:52:00,
2013-09-16 20:57:00,50.2,41.8,30.16,SSE,157,0.0,0.0,73,0.00,,,0.00,WUHU21623XXSP,2013-09-17 01:57:00,
2013-09-16 21:02:00,50.2,41.8,30.16,SSE,157,0.0,0.0,73,0.00,,,0.00,WUHU21623XXSP,2013-09-17 02:02:00,
2013-09-16 21:07:00,49.6,42.3,30.16,SSE,157,0.0,0.0,77,0.00,,,0.00,WUHU21623XXSP,2013-09-17 02:07:00,
2013-09-16 21:12:00,49.1,41.9,30.15,North,0,0.0,0.0,76,0.00,,,0.00,WUHU21623XXSP,2013-09-17 02:12:00,
2013-09-16 21:17:00,49.1,41.8,30.15,South,180,0.0,0.0,76,0.00,,,0.00,WUHU21623XXSP,2013-09-17 02:17:00,
2013-09-16 21:22:00,49.3,42.3,30.15,SE,135,0.0,0.0,77,0.00,,,0.00,WUHU21623XXSP,2013-09-17 02:22:00,
2013-09-16 21:27:00,49.3,42.3,30.15,SSE,157,0.0,0.0,77,0.00,,,0.00,WUHU21623XXSP,2013-09-17 02:27:00,
2013-09-16 21:32:00,48.9,42.0,30.15,SE,135,0.0,0.0,77,0.00,,,0.00,WUHU21623XXSP,2013-09-17 02:32:00,
2013-09-16 21:37:00,48.7,41.8,30.15,SSE,157,0.0,0.0,77,0.00,,,0.00,WUHU21623XXSP,2013-09-17 02:37:00,
2013-09-16 21:42:00,48.4,41.4,30.16,SSE,157,0.0,0.0,77,0.00,,,0.00,WUHU21623XXSP,2013-09-17 02:42:00,
2013-09-16 21:47:00,48.4,41.8,30.16,SSE,157,0.0,0.0,78,0.00,,,0.00,WUHU21623XXSP,2013-09-17 02:47:00,
2013-09-16 21:52:00,48.2,41.6,30.16,SSE,157,0.0,0.0,78,0.00,,,0.00,WUHU21623XXSP,2013-09-17 02:52:00,
2013-09-16 21:57:00,48.0,41.4,30.15,SSE,157,0.0,0.0,78,0.00,,,0.00,WUHU21623XXSP,2013-09-17 02:57:00,
2013-09-16 22:02:00,48.0,41.4,30.15,SSE,157,0.0,0.0,78,0.00,,,0.00,WUHU21623XXSP,2013-09-17 03:02:00,
2013-09-16 22:07:00,48.0,41.8,30.15,SSE,157,0.0,0.0,79,0.00,,,0.00,WUHU21623XXSP,2013-09-17 03:07:00,
2013-09-16 22:12:00,48.0,41.4,30.15,SSE,157,0.0,0.0,78,0.00,,,0.00,WUHU21623XXSP,2013-09-17 03:12:00,
2013-09-16 22:17:00,48.0,41.4,30.15,South,180,0.0,0.0,78,0.00,,,0.00,WUHU21623XXSP,2013-09-17 03:17:00,
2013-09-16 22:22:00,48.0,41.4,30.15,SSE,157,0.0,3.6,78,0.00,,,0.00,WUHU21623XXSP,2013-09-17 03:22:00,
2013-09-16 22:27:00,48.0,41.4,30.15,SSE,157,0.0,3.6,78,0.00,,,0.00,WUHU21623XXSP,2013-09-17 03:27:00,
2013-09-16 22:32:00,47.8,41.6,30.15,SSE,157,0.0,2.5,79,0.00,,,0.00,WUHU21623XXSP,2013-09-17 03:32:00,
2013-09-16 22:37:00,47.7,41.4,30.15,SSE,157,0.0,1.6,79,0.00,,,0.00,WUHU21623XXSP,2013-09-17 03:37:00,
2013-09-16 22:42:00,47.5,41.3,30.15,SSE,157,0.0,0.7,79,0.00,,,0.00,WUHU21623XXSP,2013-09-17 03:42:00,
2013-09-16 22:47:00,47.1,41.3,30.15,SSE,157,0.0,4.3,80,0.00,,,0.00,WUHU21623XXSP,2013-09-17 03:47:00,
2013-09-16 22:52:00,47.1,41.3,30.15,SSE,157,0.0,4.3,80,0.00,,,0.00,WUHU21623XXSP,2013-09-17 03:52:00,
2013-09-16 22:57:00,46.9,41.1,30.15,SE,135,0.0,0.0,80,0.00,,,0.00,WUHU21623XXSP,2013-09-17 03:57:00,
2013-09-16 23:01:00,46.6,40.8,30.15,SE,135,0.0,0.0,80,0.00,,,0.00,WUHU21623XXSP,2013-09-17 04:01:00,
2013-09-16 23:04:00,46.4,40.9,30.15,SSE,157,0.0,0.0,81,0.00,,,0.00,WUHU21623XXSP,2013-09-17 04:04:00,
2013-09-16 23:09:00,46.0,40.6,30.15,SE,135,0.0,1.1,81,0.00,,,0.00,WUHU21623XXSP,2013-09-17 04:09:00,
2013-09-16 23:15:00,46.0,40.9,30.15,SE,135,0.0,1.1,82,0.00,,,0.00,WUHU21623XXSP,2013-09-17 04:15:00,
2013-09-16 23:20:00,45.7,40.5,30.15,South,180,0.0,1.8,82,0.00,,,0.00,WUHU21623XXSP,2013-09-17 04:20:00,
2013-09-16 23:25:00,45.5,40.4,30.16,SSE,157,0.0,1.8,82,0.00,,,0.00,WUHU21623XXSP,2013-09-17 04:25:00,
2013-09-16 23:30:00,45.3,40.2,30.16,SSE,157,0.0,0.0,82,0.00,,,0.00,WUHU21623XXSP,2013-09-17 04:30:00,
2013-09-16 23:35:00,45.1,40.3,30.16,SSE,157,0.0,0.0,83,0.00,,,0.00,WUHU21623XXSP,2013-09-17 04:35:00,
2013-09-16 23:40:00,45.0,40.1,30.15,ESE,112,0.0,0.0,83,0.00,,,0.00,WUHU21623XXSP,2013-09-17 04:40:00,
2013-09-16 23:45:00,45.0,40.4,30.15,SE,135,0.0,0.0,84,0.00,,,0.00,WUHU21623XXSP,2013-09-17 04:45:00,
2013-09-16 23:50:00,44.8,40.2,30.15,SE,135,0.0,0.0,84,0.00,,,0.00,WUHU21623XXSP,2013-09-17 04:50:00,
2013-09-16 23:55:00,44.8,40.2,30.15,SE,135,0.0,0.0,84,0.00,,,0.00,WUHU21623XXSP,2013-09-17 04:55:00,